SCP
0 0 0 0 0 0 0 0 0 0 0 0 0 0 0 0 0 0 0 0 1 1 1 1 2 2 2 2 2 3 3 3 2 2 2 2 1 1 1 1 1 1 1 1 1 1 1 1 1
0 0 0 0 0 0 0 0 0 0 0 0 0 0 0 0 0 0 0 0 1 1 1 1 2 2 2 2 3 3 3 3 2 2 2 2 2 1 1 1 1 1 1 1 1 1 1 1 1
0 0 0 0 0 0 0 0 0 0 0 0 0 0 0 0 0 0 0 1 1 1 1 1 2 2 2 2 3 3 3 3 3 2 2 2 2 2 2 2 2 1 1 1 1 1 1 1 1
1 0 0 0 0 0 0 0 0 0 0 0 0 0 0 0 0 1 1 1 1 1 1 1 1 2 2 2 2 3 3 3 3 3 2 2 2 2 2 2 2 2 2 2 1 1 1 1 1
1 1 0 0 0 0 0 0 0 0 0 0 0 0 0 0 0 1 1 1 1 1 1 1 1 2 2 2 2 2 2 3 3 2 2 2 2 2 2 2 2 2 2 2 2 2 1 1 1
1 0 0 0 0 0 0 0 0 0 0 0 0 0 0 0 0 0 1 1 1 1 1 1 1 1 1 2 2 2 2 2 2 2 2 2 2 2 2 2 2 2 2 2 2 2 2 2 2
0 0 0 0 0 0 0 0 0 0 0 0 0 0 0 0 0 0 1 1 1 1 1 1 1 1 1 1 1 1 1 1 1 1 1 1 1 1 1 1 2 2 3 3 3 2 2 2 2
0 0 0 0 0 0 0 0 0 0 0 0 0 0 0 0 0 0 0 1 1 1 1 1 1 1 1 1 1 1 1 1 1 1 1 1 1 1 1 1 2 3 3 3 3 3 2 2 2
0 0 0 0 0 0 0 0 0 0 0 0 0 0 0 0 0 0 1 1 1 1 1 1 1 1 1 1 1 1 1 1 1 1 1 1 1 0 0 1 1 2 3 3 2 2 2 2 2
0 0 0 0 0 0 0 0 0 0 0 0 0 0 0 0 0 0 1 1 1 1 1 1 1 1 1 1 1 1 1 1 1 1 1 1 1 1 0 0 1 1 2 2 2 1 2 2 2
0 0 0 0 0 0 0 0 0 0 0 0 0 0 0 0 0 1 1 1 1 1 1 1 1 1 1 1 1 1 1 1 1 1 1 1 1 1 1 0 1 1 1 1 1 1 1 2 2
0 0 0 0 0 0 0 0 0 0 0 0 0 0 0 0 0 0 1 1 1 1 1 1 1 1 1 1 1 1 1 1 1 1 1 1 1 1 1 1 1 1 1 1 1 1 1 1 2
0 0 0 0 0 0 0 0 0 0 0 0 0 0 0 0 0 0 1 1 2 1 1 1 1 1 1 1 1 1 1 1 1 1 1 1 1 1 1 1 1 1 1 1 1 0 0 0 1
0 0 0 0 0 0 0 0 0 0 0 0 0 0 0 0 0 0 1 1 1 1 1 1 1 1 1 1 1 1 1 1 1 1 1 1 1 1 1 1 1 1 1 1 0 0 0 0 0
0 0 0 0 0 0 0 0 0 0 0 0 0 0 0 0 0 0 0 1 1 1 1 1 1 1 1 1 1 1 2 1 1 1 1 1 1 1 1 1 0 0 0 0 0 0 0 0 0
0 0 0 0 0 0 0 0 0 0 0 0 0 0 0 0 0 0 0 0 0 1 1 1 1 1 1 1 1 1 2 2 2 1 1 1 1 1 1 0 0 0 0 0 0 0 0 0 0
0 0 0 0 0 0 0 0 0 0 0 0 0 0 0 0 0 0 0 0 0 0 0 1 1 1 1 1 1 1 2 2 2 2 1 1 1 1 1 0 0 0 0 0 0 0 0 0 0
0 0 0 0 0 0 0 0 0 0 0 0 0 0 0 0 0 0 0 0 0 0 0 0 0 1 1 1 2 2 2 2 2 2 1 1 1 1 1 0 0 0 0 0 0 0 0 0 0
0 0 0 0 0 0 0 0 0 0 0 0 0 0 0 0 0 0 0 0 0 0 0 0 0 0 1 1 2 2 1 2 2 2 1 1 1 1 1 1 0 0 0 0 0 0 0 0 0
0 0 0 0 0 0 0 0 0 0 0 0 0 0 0 0 0 0 0 0 0 0 0 0 0 0 0 1 1 2 1 1 1 1 1 1 1 1 0 0 0 0 0 0 0 0 0 0 0
0 0 0 0 0 0 0 0 0 0 0 0 0 0 0 0 0 0 0 0 0 0 0 0 0 0 0 0 1 2 1 1 1 1 1 1 1 1 0 0 0 0 0 0 0 0 0 0 0
0 0 0 0 0 0 0 0 0 0 0 0 0 0 0 0 0 0 0 0 0 0 1 0 0 0 0 0 1 1 1 1 1 1 1 1 1 1 1 0 0 0 0 0 0 0 0 0 0
0 0 0 0 0 0 0 0 0 0 0 0 0 0 0 0 0 0 0 0 0 0 1 0 0 0 0 0 1 1 1 1 1 1 1 1 1 1 1 1 0 0 0 0 0 0 0 0 0
0 0 0 0 0 0 0 0 0 0 0 0 0 0 0 0 0 0 0 0 0 0 0 0 0 0 0 0 0 1 1 1 1 1 1 1 1 1 1 1 0 0 0 0 0 0 0 0 0
0 0 0 0 0 0 0 0 0 0 0 0 0 0 0 0 0 0 0 0 0 0 0 0 0 0 0 0 0 0 0 0 1 1 1 1 1 1 1 1 1 0 0 0 0 0 0 0 0
0 0 0 0 0 0 0 0 0 0 0 0 0 0 0 0 0 0 0 0 0 0 0 0 0 0 0 0 0 0 0 0 0 1 1 1 1 1 1 1 1 0 0 0 0 0 0 0 0
0 0 0 0 0 0 0 0 0 0 0 0 0 0 0 0 0 0 0 0 0 0 0 0 0 0 0 0 0 0 0 0 0 0 1 1 1 1 1 1 1 0 0 0 0 0 0 0 0
0 0 0 0 0 0 0 0 0 0 0 0 0 0 0 0 0 0 0 0 0 0 0 0 0 0 0 0 0 0 0 0 0 0 0 0 1 1 1 1 1 1 0 0 0 0 0 0 0
0 0 0 0 0 0 0 0 0 0 0 0 0 0 0 0 0 0 0 0 0 0 0 0 0 0 0 0 0 0 0 0 0 0 0 0 0 1 1 1 1 1 1 0 0 0 0 0 0
0 0 0 0 0 0 0 0 0 0 0 0 0 0 0 0 0 0 0 0 0 0 0 0 0 0 0 0 0 0 0 0 0 0 0 0 0 0 0 0 0 0 0 0 0 0 0 0 0
Wind_Speed
3 2 3 3 4 4 5 4 3 3 2 0 0 1 2 1 1 2 4 3 3 5 6 7 5 7 9 9 9 9 9 9 9 9 9 10 10 9 10 10 9 9 10 11 11 11 11 11 11
2 2 3 3 5 6 5 5 5 3 1 2 1 2 2 1 1 2 2 2 3 6 6 6 7 8 8 9 9 9 9 9 9 9 9 9 9 9 9 9 9 9 10 10 10 11 10 10 10
1 2 2 3 5 6 4 3 3 2 2 3 1 1 1 0 0 1 2 4 4 6 6 6 7 8 9 9 9 8 8 8 8 9 9 9 9 9 9 9 8 8 9 9 10 10 10 10 10
2 3 2 5 7 6 4 2 2 3 2 2 3 2 1 2 2 2 2 5 6 6 6 7 6 8 9 9 9 8 8 8 8 8 8 8 8 8 8 8 8 8 8 9 9 9 9 9 9
2 3 5 6 8 5 4 3 3 4 3 2 3 2 2 2 2 2 3 5 5 6 5 6 6 7 8 9 9 8 8 8 8 8 8 8 7 7 7 8 8 8 7 8 8 8 8 8 8
3 3 6 8 9 6 4 4 5 4 3 2 2 3 1 2 1 1 3 4 4 5 5 6 6 6 7 8 8 8 8 7 7 7 7 7 7 7 6 7 7 7 7 7 8 8 7 7 8
3 4 7 8 7 7 4 4 5 5 5 3 3 3 2 2 1 2 3 4 4 5 4 4 5 6 6 7 7 7 7 7 7 6 6 6 7 7 6 6 6 6 7 7 7 7 7 7 7
2 3 6 8 8 7 3 4 3 5 4 2 3 4 2 1 2 3 4 4 4 4 4 4 4 5 6 6 6 6 6 6 6 6 6 6 6 6 6 5 5 6 6 6 7 7 6 7 6
3 5 8 8 7 5 3 4 2 2 3 2 2 3 2 3 4 4 3 3 3 3 3 3 4 4 5 5 6 6 6 6 5 5 6 5 4 4 4 5 5 5 6 6 6 6 7 6 6
4 7 8 5 5 4 4 4 3 3 4 4 3 2 1 3 4 4 4 4 4 4 4 3 4 4 5 4 5 4 4 4 4 4 4 3 3 3 3 6 5 5 5 6 6 6 6 3 2
4 7 5 5 4 4 5 5 4 6 7 6 5 3 3 3 4 4 5 4 5 4 4 4 4 4 4 4 4 3 3 3 4 4 4 3 3 2 2 2 2 3 3 3 4 4 2 2 1
4 5 5 4 3 4 5 5 6 7 7 5 5 3 4 4 5 5 5 5 4 4 4 4 4 4 5 4 4 3 3 3 3 3 4 3 2 2 2 1 1 2 1 2 2 2 2 2 1
7 5 4 4 3 3 5 7 7 8 6 5 4 3 4 4 5 5 4 4 4 4 4 5 5 5 5 5 3 3 3 3 4 3 4 4 3 3 2 2 1 2 1 2 2 2 2 2 2
3 4 4 4 5 4 5 7 8 9 6 6 5 5 4 5 5 4 4 4 5 5 4 4 5 5 6 5 4 4 3 3 3 3 4 5 3 3 3 2 2 1 1 1 1 2 2 1 1
2 3 5 5 5 4 4 9 10 7 5 6 6 5 4 4 4 4 4 4 4 5 4 4 5 5 6 6 5 4 3 3 3 3 4 5 4 4 3 3 2 2 1 2 2 2 1 1 1
3 5 6 4 4 4 6 11 5 3 5 7 6 5 4 4 4 4 4 4 4 4 4 4 3 5 6 6 5 4 4 4 3 3 3 4 4 4 4 3 3 2 2 2 2 2 1 1 1
5 7 8 6 4 4 7 10 5 3 6 7 7 6 5 4 4 4 4 3 3 3 3 4 4 4 5 5 5 4 4 4 3 3 3 4 4 5 4 3 3 3 2 2 2 2 2 2 2
6 7 8 8 3 5 8 11 8 5 7 8 7 6 5 5 5 4 3 3 2 2 2 3 3 4 4 4 4 3 4 4 3 3 3 4 4 4 4 3 4 4 3 3 2 2 1 1 1
7 8 10 8 3 6 10 12 11 8 8 9 8 7 7 6 5 4 3 2 1 1 2 2 3 3 3 3 4 4 4 4 4 3 4 4 4 4 4 3 4 4 3 4 4 3 2 1 1
8 10 10 6 3 5 8 13 12 10 10 9 9 8 7 6 4 3 2 2 1 1 2 2 3 3 4 3 3 3 3 3 3 3 4 4 4 4 4 4 3 3 3 4 4 3 2 1 2
9 10 10 8 5 5 8 11 10 7 7 8 8 8 7 6 4 2 2 1 1 1 1 1 2 4 4 4 3 3 3 3 3 4 3 4 4 4 4 4 4 4 3 3 4 4 4 3 3
9 7 8 8 7 6 5 9 8 7 7 7 7 6 4 3 3 2 2 2 2 2 1 1 2 2 3 4 4 5 4 4 4 3 3 3 4 4 4 4 4 4 3 3 3 4 4 4 3
5 3 5 7 8 8 8 9 7 4 7 7 6 4 3 2 2 2 1 2 2 1 1 1 1 2 2 3 5 5 4 4 3 3 4 4 4 4 3 3 3 4 3 3 3 4 4 3 4
2 1 2 4 5 9 9 10 8 5 7 5 4 3 2 2 1 1 1 1 1 1 1 1 1 1 2 2 4 5 5 4 4 4 4 3 3 3 3 3 3 3 3 3 3 3 4 4 4
4 3 2 4 6 7 4 8 8 3 3 3 2 2 1 1 1 1 2 2 2 2 2 1 0 0 1 2 3 4 4 4 5 4 4 3 3 3 3 3 3 3 3 3 3 4 4 4 4
6 6 6 6 6 4 4 9 5 1 1 1 2 2 1 1 1 1 1 1 2 2 2 2 1 1 0 1 2 2 3 2 2 3 3 4 3 3 3 4 4 4 4 4 4 3 4 4 4
5 6 5 4 3 6 7 6 5 2 3 2 1 2 1 1 1 1 1 2 2 2 2 2 1 2 1 0 1 1 1 2 2 3 3 3 3 3 4 4 4 4 4 4 4 3 4 4 4
4 3 4 6 5 8 7 7 5 4 5 3 2 2 2 2 2 2 2 2 2 2 2 1 1 1 1 1 1 0 1 1 1 2 2 3 3 3 3 4 4 4 3 3 3 3 3 4 4
4 4 4 4 4 6 7 5 1 3 2 3 3 3 3 3 3 2 2 2 2 2 2 2 2 2 1 1 1 1 1 1 1 1 2 2 2 3 3 3 3 4 3 3 3 3 3 4 4
5 6 6 6 6 6 6 6 1 2 2 3 3 3 3 3 3 3 2 2 2 2 2 2 2 2 2 1 1 1 1 1 1 1 1 1 2 2 3 3 3 3 3 3 4 4 4 4 4
Wind_Direction
318 293 242 226 215 218 227 213 213 181 178 164 316 246 242 252 277 40 61 111 131 150 155 151 136 131 130 129 128 128 132 131 131 132 128 125 122 118 114 109 106 106 102 99 97 92 89 88 88
308 248 218 221 232 224 218 209 206 209 148 124 162 223 219 231 332 30 81 132 146 148 152 154 132 131 128 129 131 131 132 135 137 136 132 129 126 124 118 113 111 109 104 102 100 97 92 90 89
214 254 225 209 224 238 219 187 203 199 209 217 191 249 284 289 65 38 61 149 152 147 151 136 128 132 130 128 128 132 133 134 137 138 136 132 129 125 118 113 113 111 106 103 100 99 95 92 90
212 185 209 227 223 231 245 213 178 177 180 210 219 188 167 6 358 18 102 155 151 147 150 134 129 133 132 131 130 129 132 136 136 135 134 136 134 129 122 117 113 109 107 106 102 99 97 93 90
217 213 212 224 232 230 238 243 209 210 190 168 194 202 181 79 29 55 137 153 149 146 150 144 130 131 133 135 135 134 131 133 136 132 130 131 130 129 126 120 116 113 111 109 105 102 100 97 93
186 213 224 229 227 226 229 231 218 228 219 203 209 219 195 93 66 93 136 146 144 141 145 144 127 126 130 131 131 135 133 129 125 129 129 128 126 123 126 124 122 120 117 115 111 107 104 101 97
213 212 232 236 236 231 220 213 226 234 232 231 238 224 201 149 85 118 136 137 136 137 143 148 156 151 134 125 123 124 123 120 118 114 118 118 117 112 110 113 118 120 118 117 114 112 108 103 98
243 212 224 227 233 237 211 207 238 248 253 264 251 235 222 134 125 130 131 135 133 138 150 154 161 168 166 152 124 119 115 113 110 103 99 101 109 112 105 110 109 112 113 114 113 112 109 102 96
220 223 228 224 228 230 198 216 228 260 235 224 237 275 342 106 141 146 143 147 145 149 164 169 169 170 172 164 148 140 125 113 116 111 102 110 130 126 116 102 95 104 108 111 114 110 103 101 99
215 230 234 237 243 236 220 235 230 216 234 235 228 237 167 150 168 173 178 181 180 180 182 184 185 178 176 168 163 167 162 151 149 141 139 144 138 124 117 98 92 97 105 112 112 108 112 121 126
211 235 236 236 245 249 239 244 238 231 248 250 251 244 206 196 198 203 208 205 200 193 187 191 192 183 180 174 172 167 166 162 159 151 151 146 137 134 135 134 127 123 126 128 120 131 133 125 115
219 240 243 249 247 244 244 243 242 247 262 291 282 256 220 215 217 218 219 217 209 200 196 196 195 190 185 181 175 172 170 167 161 163 163 156 150 153 154 158 149 144 140 137 143 144 136 136 132
225 238 250 255 250 252 249 248 255 259 263 274 272 245 230 232 235 234 230 227 221 216 208 204 201 196 188 184 181 175 177 175 170 170 172 167 166 170 168 167 161 159 154 158 156 153 150 154 153
225 233 248 263 251 243 247 259 253 258 258 255 252 248 248 248 251 251 242 233 225 222 220 213 207 203 193 186 185 183 179 177 174 176 177 178 179 179 177 174 175 171 173 166 169 159 161 166 165
213 241 253 241 239 229 243 257 243 253 244 248 252 254 257 258 259 259 255 246 239 229 222 216 213 207 199 190 189 186 178 177 177 177 180 182 183 183 182 180 181 180 171 164 161 161 174 178 187
212 230 242 222 218 222 235 257 252 240 234 246 253 256 259 260 267 274 274 264 253 235 223 216 209 204 200 195 190 183 180 178 179 177 179 185 186 187 182 181 187 178 174 175 172 174 186 199 214
212 236 247 244 215 214 227 259 266 245 241 250 253 257 263 270 278 281 280 270 259 240 224 208 201 205 201 198 192 183 178 180 183 182 182 184 188 190 189 186 184 180 178 179 183 196 203 211 220
225 236 246 247 222 230 239 254 263 248 246 251 253 254 259 264 272 281 280 273 252 229 213 203 190 198 199 193 188 182 179 184 185 187 187 185 188 191 192 190 188 182 182 183 188 193 200 216 219
239 242 253 262 250 245 249 261 264 254 247 249 248 248 252 258 271 278 281 278 243 220 200 194 188 187 186 190 192 191 191 187 186 188 186 189 188 191 196 190 189 191 192 192 193 191 194 195 211
240 248 257 267 247 252 265 266 264 253 245 246 248 247 249 255 262 268 281 289 274 240 212 197 203 195 192 200 200 201 191 191 189 185 189 191 190 192 198 197 192 195 198 196 194 188 194 188 196
240 244 251 259 276 247 272 265 244 233 239 246 246 249 250 249 254 266 287 299 313 305 258 219 217 207 198 193 186 175 175 176 184 191 192 194 196 195 197 199 196 196 197 205 203 197 193 196 197
248 247 249 252 256 253 248 275 251 236 244 241 239 239 245 248 250 263 273 291 300 294 284 253 229 218 199 190 188 183 190 196 199 196 194 190 194 196 196 197 198 199 200 205 206 210 205 198 198
246 254 244 249 250 257 234 253 263 227 245 241 226 221 235 241 249 255 266 279 293 314 309 269 218 204 203 199 194 191 199 205 191 187 189 187 189 192 193 197 197 199 202 206 205 205 206 208 209
188 190 227 229 232 246 229 232 261 226 236 239 218 219 247 270 275 300 322 306 311 332 331 320 228 202 194 206 208 199 199 196 187 186 189 190 188 194 199 199 201 201 201 205 205 205 211 216 220
193 196 226 224 222 240 197 228 250 250 236 236 245 260 289 323 326 346 348 339 337 340 342 324 285 234 202 199 217 215 210 200 198 193 194 193 196 202 207 202 206 205 206 207 206 208 213 218 220
211 216 220 239 245 254 212 235 248 239 213 241 285 278 276 316 320 316 315 317 320 327 339 341 336 329 305 199 214 223 216 210 208 204 198 203 207 208 209 210 210 210 208 203 202 211 215 219 223
201 218 242 253 269 261 239 245 260 208 239 240 268 280 289 301 299 298 303 309 313 313 318 318 324 335 336 274 188 206 216 216 215 220 214 213 213 210 209 209 212 212 208 204 199 209 214 219 226
254 213 198 210 228 247 250 245 244 226 233 229 247 282 293 292 298 300 306 315 317 313 310 317 315 325 346 360 17 94 239 248 235 219 226 223 216 212 214 211 213 214 210 207 204 208 211 216 223
204 210 223 230 243 246 256 247 228 241 245 246 262 290 298 301 302 305 318 326 324 325 322 318 314 327 346 358 4 24 3 284 241 229 229 234 228 215 214 213 212 213 211 209 209 210 213 217 220
255 231 215 225 236 241 258 263 54 270 295 291 297 306 307 306 302 305 312 318 321 329 335 330 327 325 325 330 354 8 358 342 297 255 253 236 234 227 218 213 212 213 212 211 214 216 218 219 220